Wetbulb
70.44 70.31 70.48 70.67 71.25 71.82 72.41 73.04 74.04 73.86 74.37 74.86 75.14 75.16 75.23 74.69 74.75 74.36 74.14 72.84 72.11 71.67
71.03 71.05 71.22 71.67 72.16 72.23 73.01 73.49 73.74 73.67 74.01 74.85 74.90 75.05 75.30 75.24 75.02 74.81 74.60 73.17 70.43 69.57
70.73 71.66 72.40 73.06 72.26 72.22 73.09 73.45 74.21 74.91 75.30 75.23 75.18 75.44 75.68 75.55 75.50 74.32 74.07 73.17 71.46 70.54
70.50 71.26 71.93 72.45 73.83 74.35 74.43 74.18 73.93 74.02 74.06 74.62 75.16 75.41 75.86 75.78 75.76 73.91 73.36 73.07 71.95 71.02
71.61 71.69 71.77 71.83 72.62 74.09 74.20 74.85 75.14 75.47 75.22 75.20 74.93 75.32 75.27 74.57 74.67 74.15 73.19 72.55 71.00 69.71
71.99 72.43 72.30 72.39 72.78 73.11 73.65 74.00 74.51 75.17 74.58 74.72 75.37 75.43 74.89 74.80 74.82 74.49 73.81 72.85 71.39 70.39
72.24 72.81 73.16 73.82 74.08 74.00 74.26 74.42 74.64 74.75 74.84 75.11 75.29 75.07 74.77 75.03 74.45 73.43 72.98 72.65 72.42 71.80
73.36 73.92 74.41 74.51 74.81 74.96 75.06 75.03 75.14 74.96 74.92 75.02 73.51 74.52 74.59 73.55 72.44 70.93 70.13 69.81 68.43 68.10
72.58 73.50 73.88 74.31 74.53 74.57 74.24 74.11 74.43 73.46 73.14 73.27 74.43 68.72 70.15 70.91 70.40 69.73 68.98 67.65 66.97 66.05
72.89 73.10 73.41 73.24 69.60 68.90 68.81 68.43 68.16 68.52 68.71 68.13 67.30 66.31 68.45 69.60 70.47 68.69 67.91 66.64 65.71 65.24
72.82 72.45 70.34 65.74 65.07 66.03 67.12 66.08 65.91 67.71 67.10 65.61 66.14 65.01 64.43 66.70 68.61 67.69 66.57 65.94 65.68 65.07
72.22 68.52 67.06 65.70 65.16 66.01 64.39 63.61 63.24 66.13 65.29 64.85 66.15 62.98 63.59 65.34 65.60 64.25 64.45 64.23 64.92 65.01
71.09 68.87 67.94 67.11 64.51 66.52 65.12 65.48 66.36 65.70 66.69 65.58 66.67 63.20 61.78 63.73 63.27 62.90 61.73 63.71 64.27 62.57
70.69 70.01 66.77 65.43 66.70 65.86 66.20 66.14 65.96 66.90 67.70 67.45 64.47 61.34 57.95 59.15 62.50 61.32 60.86 61.52 60.89 60.39
MSLP
1012.84 1013.22 1013.54 1013.78 1013.87 1013.97 1014.15 1014.19 1014.22 1014.21 1014.26 1014.22 1014.18 1014.26 1014.48 1014.71 1014.71 1014.81 1014.85 1014.95 1015.08 1015.12
1012.09 1012.66 1012.98 1013.17 1013.39 1013.56 1013.73 1013.88 1014.02 1013.93 1013.96 1013.91 1013.96 1014.02 1014.09 1014.25 1014.32 1014.38 1014.39 1014.39 1014.70 1014.90
1011.19 1011.62 1011.98 1012.52 1013.01 1013.21 1013.31 1013.58 1013.78 1013.78 1013.84 1013.85 1013.84 1013.79 1013.89 1013.96 1014.18 1014.39 1014.21 1014.12 1014.32 1014.39
1010.21 1010.73 1011.47 1011.93 1012.23 1012.55 1012.97 1013.26 1013.45 1013.53 1013.69 1013.71 1013.77 1013.77 1013.92 1013.99 1013.92 1014.02 1014.01 1014.01 1014.15 1014.13
1009.46 1010.09 1010.59 1011.01 1011.45 1012.06 1012.59 1012.87 1013.09 1013.31 1013.55 1013.62 1013.76 1013.75 1013.81 1013.71 1013.66 1013.79 1013.82 1013.80 1013.95 1013.84
1008.69 1009.35 1009.93 1010.46 1011.01 1011.60 1012.18 1012.59 1012.90 1013.16 1013.43 1013.43 1013.42 1013.44 1013.42 1013.43 1013.55 1013.56 1013.60 1013.45 1013.40 1013.49
1007.95 1008.48 1009.05 1009.83 1010.69 1011.41 1011.89 1012.25 1012.68 1013.05 1013.28 1013.37 1013.35 1013.43 1013.35 1013.39 1013.51 1013.42 1013.53 1013.51 1013.41 1013.39
1007.16 1007.98 1008.82 1009.59 1010.37 1010.87 1011.23 1011.59 1011.88 1012.43 1012.81 1013.23 1013.21 1012.93 1013.27 1013.40 1013.30 1013.32 1013.34 1013.67 1013.61 1013.47
1006.85 1007.56 1008.33 1009.12 1009.55 1009.88 1010.31 1010.77 1011.59 1012.66 1012.90 1012.48 1013.01 1012.48 1012.88 1013.20 1013.28 1013.14 1013.05 1013.37 1013.40 1013.37
1006.31 1007.27 1007.97 1008.65 1009.52 1010.14 1010.73 1010.83 1011.07 1012.43 1012.99 1013.02 1012.94 1012.76 1012.68 1012.81 1013.18 1013.52 1013.38 1013.20 1013.11 1013.15
1005.76 1006.79 1007.80 1008.41 1008.96 1009.28 1009.08 1009.21 1008.78 1008.47 1011.19 1013.03 1013.03 1012.66 1012.53 1012.78 1013.06 1013.47 1013.31 1012.93 1012.91 1012.73
1005.30 1006.40 1007.23 1007.77 1008.32 1009.26 1009.86 1009.76 1009.55 1010.23 1010.95 1011.87 1012.11 1012.29 1012.54 1012.60 1012.71 1013.10 1012.79 1012.37 1012.18 1012.31
1004.49 1005.55 1006.56 1007.11 1008.14 1009.10 1009.45 1010.32 1010.86 1011.03 1011.54 1011.70 1012.12 1012.39 1012.57 1012.47 1012.86 1012.72 1012.59 1012.38 1012.27 1012.08
1004.72 1005.60 1006.51 1007.09 1008.30 1008.90 1009.46 1010.11 1011.05 1011.42 1011.64 1011.93 1012.34 1012.68 1012.54 1012.34 1012.25 1012.54 1012.43 1012.40 1012.43 1012.37
Wind_Speed
11 8 7 7 6 5 4 5 4 5 5 6 5 6 5 4 5 5 6 6 4 2
10 9 8 8 6 6 5 5 6 5 5 5 5 5 5 4 6 4 6 7 3 3
12 12 11 7 8 7 6 5 5 4 5 5 5 5 5 4 3 4 5 5 4 4
12 12 10 10 10 9 6 6 6 6 5 6 5 4 4 4 5 5 6 6 6 7
11 10 11 11 10 8 8 6 6 5 4 4 4 4 5 5 5 6 6 5 4 7
13 11 12 11 9 7 7 7 5 4 5 5 6 5 5 5 3 3 4 5 4 6
13 13 12 9 7 6 6 6 4 4 5 6 5 4 4 3 1 1 3 4 3 4
12 9 8 8 7 6 6 5 5 4 5 4 5 3 2 2 2 2 2 4 4 4
10 10 9 8 8 8 6 5 2 1 3 3 2 3 6 5 2 1 1 4 5 5
12 11 10 8 12 13 11 10 10 8 6 5 3 6 4 2 1 3 4 4 4 6
13 11 13 14 11 9 9 6 8 8 10 6 5 2 1 4 2 4 6 4 4 5
13 16 15 13 12 3 6 3 3 4 7 7 6 6 7 4 4 5 4 1 2 3
17 17 15 12 9 5 3 3 3 3 3 5 2 3 2 2 1 2 3 4 5 4
12 13 11 9 4 3 4 5 5 4 2 4 6 7 6 3 2 1 2 2 4 4
Wind_Direction
203 205 212 212 208 214 207 217 219 210 218 227 239 249 230 223 237 248 270 260 208 224
197 198 204 210 208 220 221 234 231 214 222 223 232 240 226 221 234 238 262 269 203 201
198 201 205 195 211 217 228 225 242 237 229 245 244 226 220 236 237 250 269 276 251 231
200 200 197 204 208 212 209 211 213 221 238 245 239 224 228 258 263 250 259 273 286 289
199 194 198 209 210 197 209 211 215 226 234 233 243 249 242 253 254 264 287 294 300 289
198 192 202 209 207 187 193 217 226 213 223 231 239 237 232 237 268 271 274 282 286 288
193 198 201 194 181 175 187 207 211 222 236 238 238 238 235 227 282 316 306 304 300 305
194 188 171 159 158 165 171 181 190 210 240 266 259 214 194 154 195 251 326 325 326 316
167 163 165 153 162 165 167 171 159 345 269 205 216 139 171 179 204 227 273 300 301 303
166 161 164 128 96 95 98 104 93 36 341 244 236 201 166 130 248 287 276 266 290 307
164 145 121 129 134 160 177 147 148 138 201 243 252 192 157 233 237 266 255 261 275 273
146 134 148 148 166 51 106 191 45 82 159 192 222 197 209 192 195 227 287 312 256 263
153 150 159 153 111 138 164 147 136 87 129 191 221 203 348 183 192 300 323 325 322 307
139 144 128 114 67 97 125 109 98 156 176 79 36 47 44 137 138 246 296 307 322 336